�������l�o���
Date,Time,MP-1(��Sv/h),MP-2(��Sv/h),MP-3(��Sv/h),MP-4(��Sv/h),MP-5(��Sv/h),MP-6(��Sv/h),MP-7(��Sv/h),MP-8(��Sv/h),����,����(m/s),���J
2023/06/14,00:00,0.532,0.787,0.484,0.947,0.689,0.322,0.563,0.531,�k��,2.5,��
2023/06/14,00:10,0.532,0.788,0.484,0.946,0.690,0.321,0.566,0.531,�k��,3.5,��
2023/06/14,00:20,0.530,0.788,0.484,0.946,0.689,0.323,0.563,0.532,�k�k��,4.3,��
2023/06/14,00:30,0.530,0.787,0.486,0.948,0.691,0.322,0.564,0.530,�k,3.9,��
2023/06/14,00:40,0.533,0.787,0.484,0.946,0.689,0.323,0.565,0.532,�k�k��,4.3,��
2023/06/14,00:50,0.530,0.786,0.484,0.949,0.689,0.323,0.564,0.531,�k,3.0,��
2023/06/14,01:00,0.530,0.789,0.485,0.946,0.691,0.323,0.565,0.532,�k,3.0,��
2023/06/14,01:10,0.531,0.786,0.485,0.948,0.688,0.322,0.563,0.530,�k�k��,3.0,��
2023/06/14,01:20,0.529,0.788,0.484,0.947,0.690,0.322,0.566,0.531,�k,2.0,��
2023/06/14,01:30,0.530,0.787,0.485,0.947,0.689,0.321,0.565,0.531,�k�k��,2.8,��
2023/06/14,01:40,0.530,0.787,0.484,0.946,0.687,0.321,0.564,0.531,�k�k��,3.1,��
2023/06/14,01:50,0.530,0.789,0.485,0.946,0.686,0.321,0.565,0.531,�k�k��,2.9,��
2023/06/14,02:00,0.531,0.785,0.483,0.948,0.690,0.323,0.565,0.531,�k�k��,3.4,��
2023/06/14,02:10,0.529,0.788,0.483,0.948,0.690,0.321,0.564,0.531,�k�k��,4.0,��
2023/06/14,02:20,0.529,0.786,0.484,0.946,0.687,0.322,0.565,0.530,�k�k��,4.6,�L
2023/06/14,02:30,0.530,0.786,0.484,0.947,0.688,0.321,0.566,0.530,�k�k��,5.1,�L
2023/06/14,02:40,0.530,0.784,0.483,0.945,0.688,0.321,0.564,0.532,�k�k��,6.3,�L
2023/06/14,02:50,0.529,0.786,0.483,0.947,0.688,0.323,0.564,0.531,�k�k��,5.2,�L
2023/06/14,03:00,0.530,0.786,0.483,0.945,0.688,0.321,0.565,0.530,�k�k��,5.1,�L
2023/06/14,03:10,0.529,0.787,0.485,0.948,0.687,0.320,0.564,0.531,�k��,5.3,�L
2023/06/14,03:20,0.529,0.786,0.484,0.946,0.688,0.321,0.564,0.531,�k�k��,5.7,�L
2023/06/14,03:30,0.528,0.787,0.483,0.947,0.690,0.322,0.565,0.531,�k�k��,6.0,�L
2023/06/14,03:40,0.529,0.786,0.484,0.946,0.688,0.322,0.565,0.532,�k�k��,5.5,��
2023/06/14,03:50,0.527,0.785,0.484,0.947,0.688,0.322,0.564,0.532,�k�k��,5.2,�L
2023/06/14,04:00,0.530,0.786,0.483,0.946,0.688,0.321,0.565,0.531,�k�k��,4.4,�L
2023/06/14,04:10,0.528,0.783,0.486,0.949,0.690,0.322,0.564,0.530,�k��,2.6,�L
2023/06/14,04:20,0.527,0.782,0.483,0.946,0.688,0.324,0.565,0.533,�k�k��,2.9,�L
2023/06/14,04:30,0.527,0.781,0.484,0.946,0.686,0.323,0.564,0.531,�k��,2.6,�L
2023/06/14,04:40,0.529,0.779,0.485,0.947,0.685,0.325,0.563,0.530,�k��,1.9,�L
2023/06/14,04:50,0.530,0.778,0.484,0.942,0.681,0.326,0.561,0.529,�k�k��,3.3,�L
2023/06/14,05:00,0.527,0.775,0.485,0.943,0.682,0.326,0.559,0.525,�k��,1.9,�L
2023/06/14,05:10,0.528,0.774,0.486,0.942,0.681,0.325,0.560,0.526,�k��,2.0,�L
2023/06/14,05:20,0.527,0.773,0.483,0.937,0.676,0.323,0.559,0.526,�쓌,5.0,�L
2023/06/14,05:30,0.525,0.770,0.484,0.933,0.674,0.325,0.557,0.525,���쐼,2.0,�L
2023/06/14,05:40,0.523,0.769,0.483,0.930,0.674,0.326,0.556,0.523,�쐼,2.6,�L
2023/06/14,05:50,0.523,0.767,0.481,0.927,0.671,0.325,0.553,0.522,��쐼,2.6,�L
2023/06/14,06:00,0.521,0.762,0.481,0.924,0.668,0.325,0.554,0.522,-,CALM,�L
2023/06/14,06:10,0.520,0.762,0.479,0.921,0.664,0.324,0.553,0.518,��,4.0,�L
2023/06/14,06:20,0.520,0.758,0.479,0.920,0.664,0.324,0.551,0.506,��쐼,3.4,�L
2023/06/14,06:30,0.519,0.754,0.480,0.919,0.665,0.326,0.551,0.480,��쐼,2.0,�L
2023/06/14,06:40,0.520,0.756,0.482,0.919,0.664,0.327,0.553,0.477,�쐼,2.2,�L
2023/06/14,06:50,0.523,0.761,0.481,0.920,0.666,0.326,0.553,0.483,���k��,1.2,�L
2023/06/14,07:00,0.522,0.759,0.482,0.920,0.665,0.326,0.552,0.496,-,CALM,�L
2023/06/14,07:10,0.524,0.761,0.480,0.918,0.662,0.325,0.551,0.502,�k��,2.6,�L
2023/06/14,07:20,0.523,0.760,0.479,0.919,0.661,0.324,0.550,0.505,�k��,2.8,�L
2023/06/14,07:30,0.519,0.758,0.478,0.917,0.663,0.325,0.550,0.509,�k��,2.3,�L
2023/06/14,07:40,0.520,0.757,0.478,0.917,0.656,0.324,0.550,0.516,�k��,2.0,�L
2023/06/14,07:50,0.520,0.756,0.478,0.916,0.660,0.323,0.550,0.518,�k��,2.6,�L
2023/06/14,08:00,0.522,0.757,0.477,0.920,0.659,0.323,0.549,0.521,�k��,2.5,�L
2023/06/14,08:10,0.520,0.756,0.474,0.917,0.658,0.322,0.549,0.519,�k��,2.6,�L
2023/06/14,08:20,0.517,0.755,0.474,0.915,0.655,0.321,0.549,0.522,�k��,2.3,�L
2023/06/14,08:30,0.515,0.752,0.473,0.912,0.651,0.321,0.547,0.520,���k��,1.7,�L
2023/06/14,08:40,0.513,0.752,0.474,0.915,0.652,0.320,0.548,0.521,��,1.7,�L
2023/06/14,08:50,0.516,0.752,0.474,0.913,0.655,0.321,0.548,0.523,��쐼,1.5,�L
2023/06/14,09:00,0.514,0.753,0.473,0.914,0.654,0.320,0.549,0.522,�쐼,1.2,�L
2023/06/14,09:10,0.515,0.752,0.472,0.915,0.652,0.318,0.549,0.521,���k��,0.9,�L
2023/06/14,09:20,0.514,0.753,0.471,0.915,0.652,0.319,0.549,0.521,�k�k��,1.7,�L
2023/06/14,09:30,0.514,0.751,0.472,0.916,0.652,0.317,0.549,0.521,�k�k��,2.5,�L
2023/06/14,09:40,0.513,0.753,0.470,0.914,0.653,0.316,0.549,0.521,�k,3.5,�L
2023/06/14,09:50,0.513,0.751,0.471,0.914,0.653,0.317,0.548,0.522,�k,3.2,�L
2023/06/14,10:00,0.512,0.753,0.469,0.916,0.654,0.316,0.549,0.521,�k,3.3,�L
2023/06/14,10:10,0.512,0.755,0.469,0.915,0.653,0.315,0.548,0.523,�k,2.3,�L
2023/06/14,10:20,0.511,0.753,0.467,0.916,0.654,0.314,0.549,0.521,�k�k��,2.0,�L
2023/06/14,10:30,0.511,0.754,0.468,0.916,0.654,0.314,0.550,0.522,�k�k��,1.9,�L
2023/06/14,10:40,0.511,0.754,0.471,0.914,0.653,0.316,0.549,0.522,���k��,1.7,�L
2023/06/14,10:50,0.512,0.755,0.469,0.915,0.655,0.314,0.549,0.522,�k��,2.5,�L
2023/06/14,11:00,0.510,0.753,0.470,0.916,0.654,0.314,0.548,0.521,�k��,3.2,�L
2023/06/14,11:10,0.510,0.752,0.469,0.917,0.654,0.314,0.549,0.522,�k��,3.3,�L
2023/06/14,11:20,0.512,0.754,0.470,0.917,0.655,0.313,0.550,0.522,�k��,2.0,�L
2023/06/14,11:30,0.511,0.754,0.467,0.917,0.655,0.313,0.551,0.521,�k��,1.5,�L
2023/06/14,11:40,0.511,0.753,0.470,0.919,0.653,0.315,0.550,0.521,�k��,2.3,�L
2023/06/14,11:50,0.512,0.755,0.470,0.918,0.653,0.313,0.551,0.521,�k��,2.2,�L
2023/06/14,12:00,0.514,0.755,0.470,0.916,0.658,0.314,0.552,0.521,�k��,1.7,�L
2023/06/14,12:10,0.512,0.757,0.471,0.918,0.657,0.314,0.552,0.521,���k��,1.9,�L
2023/06/14,12:20,0.512,0.757,0.470,0.919,0.657,0.314,0.551,0.522,�k�k��,1.7,��
2023/06/14,12:30,0.513,0.758,0.470,0.920,0.658,0.315,0.552,0.521,�k�k��,1.7,��
2023/06/14,12:40,0.513,0.757,0.471,0.920,0.657,0.313,0.551,0.522,�k,2.0,��
2023/06/14,12:50,0.513,0.758,0.470,0.921,0.657,0.315,0.552,0.522,���k��,1.9,��
2023/06/14,13:00,0.511,0.758,0.470,0.920,0.659,0.314,0.555,0.522,���k��,2.0,��
2023/06/14,13:10,0.513,0.759,0.469,0.921,0.659,0.315,0.553,0.522,���k��,0.8,��
2023/06/14,13:20,0.514,0.758,0.469,0.920,0.659,0.314,0.552,0.522,��,1.5,��
2023/06/14,13:30,0.515,0.760,0.469,0.921,0.659,0.315,0.552,0.522,���쓌,1.5,��
2023/06/14,13:40,0.513,0.760,0.470,0.917,0.659,0.315,0.553,0.522,�쓌,1.7,�L
2023/06/14,13:50,0.512,0.761,0.468,0.921,0.658,0.314,0.552,0.522,��쓌,1.4,�L
2023/06/14,14:00,0.514,0.759,0.470,0.921,0.660,0.314,0.552,0.521,��,1.7,�L
2023/06/14,14:10,0.516,0.761,0.469,0.920,0.661,0.315,0.552,0.521,��쓌,1.7,�L
2023/06/14,14:20,0.513,0.757,0.472,0.920,0.660,0.315,0.552,0.521,��쓌,1.9,�L
2023/06/14,14:30,0.514,0.757,0.470,0.919,0.658,0.315,0.551,0.522,��쓌,2.9,�L
2023/06/14,14:40,0.515,0.757,0.473,0.921,0.657,0.316,0.550,0.522,��,2.3,�L
2023/06/14,14:50,0.515,0.754,0.470,0.921,0.655,0.315,0.551,0.521,��,1.5,�L
2023/06/14,15:00,0.512,0.753,0.470,0.919,0.653,0.317,0.551,0.521,-,CALM,�L
2023/06/14,15:10,0.511,0.751,0.471,0.916,0.654,0.318,0.549,0.520,��,2.8,�L
2023/06/14,15:20,0.512,0.752,0.470,0.917,0.651,0.316,0.548,0.520,��쓌,3.0,�L
2023/06/14,15:30,0.510,0.748,0.468,0.915,0.648,0.316,0.547,0.520,��,3.1,�L
2023/06/14,15:40,0.511,0.749,0.468,0.911,0.649,0.315,0.547,0.518,��,2.5,�L
2023/06/14,15:50,0.510,0.749,0.468,0.911,0.647,0.317,0.545,0.516,��쐼,1.5,�L
2023/06/14,16:00,0.506,0.747,0.466,0.908,0.647,0.316,0.543,0.515,��,1.2,�L
2023/06/14,16:10,0.509,0.749,0.468,0.906,0.645,0.314,0.543,0.510,�쓌,0.9,�L
2023/06/14,16:20,0.508,0.746,0.466,0.903,0.644,0.313,0.542,0.488,�쓌,1.4,�L
2023/06/14,16:30,0.505,0.743,0.465,0.903,0.643,0.316,0.545,0.489,�쓌,0.9,�L
2023/06/14,16:40,0.506,0.744,0.466,0.903,0.645,0.315,0.545,0.495,-,CALM,�L
2023/06/14,16:50,0.506,0.744,0.466,0.906,0.645,0.314,0.546,0.502,�k��,1.1,�L
2023/06/14,17:00,0.507,0.744,0.468,0.905,0.642,0.315,0.546,0.509,���k��,2.2,�L
2023/06/14,17:10,0.507,0.745,0.467,0.904,0.644,0.315,0.545,0.513,�k��,2.0,�L
2023/06/14,17:20,0.508,0.747,0.467,0.906,0.644,0.315,0.544,0.514,�k��,2.5,�L
2023/06/14,17:30,0.509,0.748,0.467,0.905,0.641,0.316,0.544,0.516,�k��,2.6,�L
2023/06/14,17:40,0.507,0.748,0.468,0.904,0.642,0.315,0.543,0.516,�k��,1.7,�L
2023/06/14,17:50,0.508,0.747,0.466,0.904,0.642,0.316,0.543,0.516,�k��,1.5,�L
2023/06/14,18:00,0.508,0.747,0.466,0.905,0.643,0.315,0.543,0.516,�k�k��,1.7,�L
2023/06/14,18:10,0.505,0.749,0.466,0.905,0.642,0.315,0.544,0.519,�k�k��,1.2,�L
2023/06/14,18:20,0.509,0.748,0.467,0.904,0.641,0.316,0.543,0.516,�k,0.9,�L
2023/06/14,18:30,0.507,0.746,0.466,0.903,0.640,0.314,0.543,0.515,�k�k��,0.9,�L
2023/06/14,18:40,0.504,0.744,0.464,0.904,0.640,0.314,0.540,0.514,�쓌,0.9,�L
2023/06/14,18:50,0.506,0.744,0.464,0.899,0.632,0.312,0.541,0.504,�k��,1.2,�L
2023/06/14,19:00,0.502,0.744,0.464,0.901,0.635,0.313,0.541,0.489,�k�k��,2.3,�L
2023/06/14,19:10,0.503,0.743,0.464,0.902,0.639,0.313,0.543,0.496,�k�k��,3.3,��
2023/06/14,19:20,0.505,0.744,0.464,0.904,0.638,0.313,0.543,0.505,�k�k��,3.0,�L
2023/06/14,19:30,0.506,0.746,0.465,0.905,0.641,0.314,0.544,0.511,�k�k��,2.6,��
2023/06/14,19:40,0.507,0.748,0.466,0.905,0.640,0.313,0.543,0.516,�k��,3.1,��
2023/06/14,19:50,0.508,0.749,0.467,0.908,0.640,0.313,0.545,0.516,�k�k��,3.3,��
2023/06/14,20:00,0.505,0.748,0.467,0.909,0.641,0.313,0.543,0.519,�k�k��,3.5,��
2023/06/14,20:10,0.508,0.750,0.468,0.908,0.643,0.313,0.545,0.518,�k��,3.7,��
2023/06/14,20:20,0.506,0.752,0.466,0.907,0.642,0.312,0.544,0.518,�k�k��,3.7,��
2023/06/14,20:30,0.506,0.751,0.467,0.910,0.642,0.314,0.544,0.519,�k�k��,3.5,��
2023/06/14,20:40,0.508,0.749,0.467,0.908,0.642,0.312,0.545,0.519,�k�k��,3.2,��
2023/06/14,20:50,0.506,0.750,0.467,0.910,0.642,0.312,0.545,0.519,�k�k��,3.9,��
2023/06/14,21:00,0.507,0.751,0.468,0.910,0.645,0.312,0.546,0.517,�k�k��,4.0,��
2023/06/14,21:10,0.506,0.751,0.468,0.909,0.645,0.311,0.545,0.518,�k�k��,3.9,��
2023/06/14,21:20,0.506,0.752,0.468,0.910,0.645,0.312,0.546,0.516,�k,3.7,��
2023/06/14,21:30,0.508,0.751,0.468,0.911,0.645,0.313,0.544,0.520,�k,3.6,��
2023/06/14,21:40,0.507,0.752,0.469,0.911,0.647,0.313,0.545,0.519,�k�k��,3.8,��
2023/06/14,21:50,0.507,0.754,0.467,0.913,0.646,0.312,0.545,0.520,�k,4.1,��
2023/06/14,22:00,0.509,0.752,0.466,0.912,0.647,0.313,0.545,0.519,�k�k��,3.9,��
2023/06/14,22:10,0.508,0.753,0.468,0.912,0.648,0.314,0.546,0.518,�k�k��,3.2,��
2023/06/14,22:20,0.509,0.755,0.469,0.911,0.649,0.313,0.546,0.518,�k�k��,3.0,��
2023/06/14,22:30,0.508,0.754,0.469,0.912,0.648,0.312,0.546,0.518,�k�k��,3.2,��
2023/06/14,22:40,0.508,0.754,0.467,0.912,0.648,0.315,0.546,0.519,�k,2.3,��
2023/06/14,22:50,0.508,0.755,0.469,0.913,0.649,0.314,0.547,0.520,�k,2.3,��
2023/06/14,23:00,0.508,0.754,0.468,0.914,0.650,0.314,0.546,0.518,�k,2.8,��
2023/06/14,23:10,0.510,0.753,0.470,0.914,0.649,0.313,0.548,0.519,�k�k��,3.3,��
2023/06/14,23:20,0.511,0.755,0.469,0.913,0.651,0.315,0.545,0.519,�k�k��,3.1,�L
2023/06/14,23:30,0.511,0.754,0.469,0.916,0.652,0.314,0.547,0.519,�k�k��,4.3,�L
2023/06/14,23:40,0.510,0.756,0.469,0.916,0.651,0.314,0.547,0.519,�k�k��,4.0,��
2023/06/14,23:50,0.510,0.754,0.467,0.913,0.651,0.315,0.548,0.520,�k�k��,4.1,�L
